UCA4288 KELP-KIAH

Flight info

Callsign UCA4288
Flight time 1h 30m
Altitude 35000
Route TDOWN3 SFL DCT FUSCO DCT DIESL TTORO3
Aircraft E145/M-SDFGIRW/S

Departure

Time 2026-04-20 17:38
Airport El Paso International Airport (KELP)

Arrival

Time 2026-04-20 19:08
Airport George Bush Intercontinental Airport (KIAH)
Time Latitude Longitude Altitude Speed Heading
2026-04-20 17:07 31.79966 -106.39408 3922 ft 0 kts 339°
2026-04-20 17:22 31.79967 -106.39409 3922 ft 0 kts 339°
2026-04-20 17:23 31.79957 -106.39404 3922 ft 2 kts 339°
2026-04-20 17:23 31.79943 -106.39397 3922 ft 2 kts 339°
2026-04-20 17:23 31.79929 -106.39391 3921 ft 2 kts 339°
2026-04-20 17:23 31.79916 -106.39385 3921 ft 1 kts 339°
2026-04-20 17:24 31.79917 -106.39386 3921 ft 2 kts 339°
2026-04-20 17:24 31.79929 -106.39387 3921 ft 2 kts 22°
2026-04-20 17:24 31.79938 -106.39372 3922 ft 2 kts 73°
2026-04-20 17:24 31.79937 -106.39349 3922 ft 3 kts 110°
2026-04-20 17:25 31.79929 -106.39329 3923 ft 3 kts 117°
2026-04-20 17:25 31.79932 -106.39307 3923 ft 1 kts 72°
2026-04-20 17:25 31.79932 -106.39306 3923 ft 0 kts 72°
2026-04-20 17:26 31.79932 -106.39305 3923 ft 0 kts 72°
2026-04-20 17:29 31.79933 -106.39301 3923 ft 1 kts 72°
2026-04-20 17:29 31.79939 -106.39276 3924 ft 4 kts 77°
2026-04-20 17:29 31.79954 -106.39225 3924 ft 8 kts 73°
2026-04-20 17:29 31.79970 -106.39151 3924 ft 10 kts 76°
2026-04-20 17:30 31.79988 -106.39062 3924 ft 12 kts 83°
2026-04-20 17:30 31.79988 -106.38956 3925 ft 13 kts 90°
2026-04-20 17:30 31.79989 -106.38847 3927 ft 13 kts 90°
2026-04-20 17:30 31.79990 -106.38740 3929 ft 13 kts 90°
2026-04-20 17:31 31.79990 -106.38631 3931 ft 13 kts 90°
2026-04-20 17:31 31.79990 -106.38524 3933 ft 13 kts 90°
2026-04-20 17:31 31.79991 -106.38418 3935 ft 13 kts 90°
2026-04-20 17:31 31.79991 -106.38309 3937 ft 13 kts 90°
2026-04-20 17:32 31.79992 -106.38193 3937 ft 15 kts 90°
2026-04-20 17:32 31.79993 -106.38067 3938 ft 15 kts 90°
2026-04-20 17:32 31.79991 -106.37938 3940 ft 16 kts 92°
2026-04-20 17:32 31.79986 -106.37799 3940 ft 17 kts 93°
2026-04-20 17:33 31.79979 -106.37658 3943 ft 17 kts 93°
2026-04-20 17:33 31.79973 -106.37518 3946 ft 17 kts 93°
2026-04-20 17:33 31.79965 -106.37374 3947 ft 18 kts 94°
2026-04-20 17:33 31.79957 -106.37224 3948 ft 18 kts 94°
2026-04-20 17:34 31.79950 -106.37073 3951 ft 18 kts 94°
2026-04-20 17:34 31.79943 -106.36925 3954 ft 18 kts 94°
2026-04-20 17:34 31.79935 -106.36775 3956 ft 18 kts 94°
2026-04-20 17:34 31.79927 -106.36617 3956 ft 20 kts 93°
2026-04-20 17:35 31.79920 -106.36465 3955 ft 18 kts 93°
2026-04-20 17:35 31.79912 -106.36304 3952 ft 21 kts 94°
2026-04-20 17:35 31.79904 -106.36154 3949 ft 18 kts 93°
2026-04-20 17:35 31.79899 -106.36030 3947 ft 10 kts 84°
2026-04-20 17:36 31.79949 -106.35987 3946 ft 10 kts
2026-04-20 17:36 31.80026 -106.35982 3946 ft 10 kts
2026-04-20 17:36 31.80066 -106.35997 3946 ft 5 kts 292°
2026-04-20 17:36 31.80070 -106.36026 3947 ft 0 kts 273°
2026-04-20 17:37 31.80071 -106.36060 3947 ft 21 kts 273°
2026-04-20 17:37 31.80093 -106.36557 3956 ft 96 kts 274°
2026-04-20 17:37 31.80141 -106.37592 3945 ft 156 kts 273°
2026-04-20 17:38 31.80191 -106.38958 4271 ft 175 kts 272°
2026-04-20 17:38 31.80184 -106.40392 4868 ft 183 kts 258°
2026-04-20 17:38 31.79553 -106.41684 5436 ft 190 kts 220°
2026-04-20 17:38 31.78344 -106.42268 6047 ft 194 kts 180°
2026-04-20 17:39 31.77057 -106.41825 6593 ft 204 kts 142°
2026-04-20 17:39 31.76148 -106.40507 7203 ft 214 kts 118°
2026-04-20 17:39 31.75485 -106.38985 8011 ft 215 kts 116°
2026-04-20 17:39 31.74803 -106.37371 8655 ft 226 kts 117°
2026-04-20 17:40 31.74076 -106.35655 9098 ft 247 kts 117°
2026-04-20 17:40 31.73281 -106.33792 9630 ft 263 kts 118°
2026-04-20 17:40 31.72510 -106.31788 10091 ft 281 kts 105°
2026-04-20 17:40 31.72324 -106.29466 10780 ft 291 kts 91°
2026-04-20 17:41 31.72352 -106.27087 11379 ft 302 kts 89°
2026-04-20 17:41 31.72430 -106.24574 11920 ft 315 kts 85°
2026-04-20 17:41 31.73118 -106.22089 12439 ft 328 kts 60°
2026-04-20 17:41 31.74344 -106.19817 13015 ft 337 kts 59°
2026-04-20 17:42 31.75595 -106.17411 13520 ft 349 kts 59°
2026-04-20 17:42 31.76877 -106.14940 14007 ft 360 kts 59°
2026-04-20 17:42 31.78165 -106.12415 14498 ft 368 kts 63°
2026-04-20 17:42 31.78902 -106.09529 15129 ft 370 kts 85°
2026-04-20 17:43 31.78902 -106.06541 15745 ft 374 kts 92°
2026-04-20 17:43 31.78868 -106.03471 16385 ft 377 kts 92°
2026-04-20 17:43 31.78831 -106.00374 17008 ft 381 kts 92°
2026-04-20 17:43 31.78793 -105.97284 17606 ft 385 kts 92°
2026-04-20 17:44 31.78754 -105.94123 18248 ft 387 kts 92°
2026-04-20 17:44 31.78715 -105.90968 19011 ft 386 kts 92°
2026-04-20 17:44 31.78674 -105.87835 19759 ft 385 kts 92°
2026-04-20 17:44 31.78634 -105.84711 20499 ft 383 kts 93°
2026-04-20 17:45 31.78592 -105.81634 21199 ft 383 kts 93°
2026-04-20 17:45 31.78550 -105.78513 21909 ft 382 kts 93°
2026-04-20 17:45 31.78507 -105.75402 22616 ft 382 kts 93°
2026-04-20 17:45 31.78463 -105.72293 23330 ft 380 kts 94°
2026-04-20 17:46 31.78396 -105.69228 23972 ft 380 kts 96°
2026-04-20 17:46 31.78212 -105.66125 24621 ft 381 kts 97°
2026-04-20 17:46 31.78035 -105.63051 25275 ft 380 kts 97°
2026-04-20 17:46 31.77856 -105.59940 25878 ft 381 kts 97°
2026-04-20 17:47 31.77678 -105.56844 26490 ft 381 kts 97°
2026-04-20 17:47 31.77501 -105.53770 27104 ft 381 kts 97°
2026-04-20 17:47 31.77320 -105.50649 27686 ft 382 kts 97°
2026-04-20 17:47 31.77140 -105.47568 28276 ft 382 kts 97°
2026-04-20 17:48 31.76957 -105.44433 28878 ft 382 kts 97°
2026-04-20 17:48 31.76777 -105.41366 29429 ft 383 kts 97°
2026-04-20 17:48 31.76593 -105.38248 29974 ft 383 kts 97°
2026-04-20 17:48 31.76409 -105.35141 30478 ft 383 kts 97°
2026-04-20 17:49 31.76224 -105.32027 30956 ft 383 kts 98°
2026-04-20 17:49 31.76035 -105.28879 31385 ft 385 kts 98°
2026-04-20 17:49 31.75848 -105.25752 31802 ft 386 kts 98°
2026-04-20 17:49 31.75658 -105.22607 32217 ft 387 kts 98°
2026-04-20 17:50 31.75468 -105.19455 32624 ft 388 kts 97°
2026-04-20 17:50 31.75277 -105.16308 33017 ft 389 kts 97°
2026-04-20 17:50 31.75086 -105.13182 33399 ft 390 kts 97°
2026-04-20 17:50 31.74891 -105.09991 33771 ft 391 kts 97°
2026-04-20 17:51 31.74572 -105.06882 34169 ft 387 kts 103°
2026-04-20 17:51 31.74140 -105.03775 34566 ft 387 kts 103°
2026-04-20 17:51 31.73711 -105.00651 34953 ft 386 kts 103°
2026-04-20 17:51 31.73282 -104.97527 35209 ft 390 kts 103°
2026-04-20 17:52 31.72845 -104.94359 35242 ft 402 kts 103°
2026-04-20 17:52 31.72392 -104.91071 35254 ft 414 kts 103°
2026-04-20 17:52 31.71925 -104.87697 35259 ft 426 kts 103°
2026-04-20 17:52 31.71445 -104.84222 35259 ft 438 kts 103°
2026-04-20 17:53 31.70949 -104.80645 35256 ft 450 kts 102°
2026-04-20 17:53 31.70439 -104.76978 35258 ft 461 kts 102°
2026-04-20 17:53 31.69916 -104.73216 35254 ft 471 kts 102°
2026-04-20 17:53 31.69377 -104.69352 35002 ft 475 kts 102°
2026-04-20 17:54 31.68851 -104.65593 35298 ft 472 kts 102°
2026-04-20 17:54 31.67787 -104.58013 35248 ft 470 kts 102°
2026-04-20 17:55 31.66725 -104.50476 35365 ft 462 kts 102°
2026-04-20 17:55 31.65676 -104.43069 35205 ft 457 kts 103°
2026-04-20 17:56 31.64636 -104.35759 35266 ft 456 kts 102°
2026-04-20 17:56 31.63590 -104.28434 35217 ft 459 kts 103°
2026-04-20 17:57 31.62532 -104.21051 35237 ft 461 kts 103°
2026-04-20 17:57 31.61462 -104.13624 35283 ft 461 kts 103°
2026-04-20 17:58 31.60394 -104.06241 35212 ft 463 kts 103°
2026-04-20 17:58 31.59312 -103.98788 35180 ft 462 kts 103°
2026-04-20 17:59 31.58231 -103.91383 35246 ft 464 kts 103°
2026-04-20 17:59 31.57140 -103.83932 35197 ft 465 kts 103°
2026-04-20 18:00 31.56047 -103.76505 35225 ft 464 kts 103°
2026-04-20 18:00 31.54949 -103.69066 35219 ft 464 kts 103°
2026-04-20 18:01 31.53849 -103.61654 35248 ft 463 kts 103°
2026-04-20 18:01 31.52735 -103.54172 35279 ft 470 kts 103°
2026-04-20 18:02 31.51611 -103.46659 35236 ft 472 kts 103°
2026-04-20 18:02 31.50475 -103.39087 35233 ft 473 kts 103°
2026-04-20 18:03 31.49336 -103.31536 35223 ft 473 kts 104°
2026-04-20 18:03 31.48178 -103.23888 35215 ft 473 kts 104°
2026-04-20 18:04 31.47022 -103.16289 35222 ft 473 kts 104°
2026-04-20 18:04 31.45874 -103.08770 35215 ft 473 kts 104°
2026-04-20 18:05 31.44128 -102.97388 35225 ft 473 kts 104°
2026-04-20 18:05 31.42966 -102.89851 35220 ft 474 kts 104°
2026-04-20 18:06 31.41794 -102.82285 35228 ft 474 kts 104°
2026-04-20 18:06 31.40612 -102.74683 35228 ft 474 kts 104°
2026-04-20 18:07 31.39432 -102.67127 35223 ft 474 kts 104°
2026-04-20 18:07 31.38244 -102.59547 35221 ft 475 kts 104°
2026-04-20 18:08 31.37051 -102.51965 35227 ft 475 kts 104°
2026-04-20 18:08 31.35858 -102.44414 35225 ft 475 kts 104°
2026-04-20 18:09 31.34656 -102.36837 35377 ft 471 kts 104°
2026-04-20 18:09 31.34054 -102.33058 35227 ft 476 kts 104°
2026-04-20 18:09 31.33452 -102.29281 34979 ft 476 kts 104°
2026-04-20 18:10 31.32848 -102.25496 35197 ft 469 kts 104°
2026-04-20 18:10 31.32255 -102.21792 35233 ft 469 kts 104°
2026-04-20 18:10 31.31050 -102.14282 35195 ft 470 kts 104°
2026-04-20 18:11 31.29839 -102.06769 35247 ft 472 kts 104°
2026-04-20 18:11 31.28626 -101.99268 35191 ft 469 kts 104°
2026-04-20 18:12 31.27421 -101.91848 35227 ft 468 kts 104°
2026-04-20 18:12 31.26200 -101.84357 35237 ft 469 kts 104°
2026-04-20 18:13 31.24982 -101.76914 35235 ft 469 kts 104°
2026-04-20 18:13 31.23756 -101.69448 35236 ft 469 kts 104°
2026-04-20 18:14 31.22528 -101.61997 35240 ft 470 kts 104°
2026-04-20 18:14 31.21293 -101.54536 35240 ft 470 kts 104°
2026-04-20 18:15 31.20044 -101.47014 35245 ft 471 kts 104°
2026-04-20 18:15 31.18799 -101.39547 35246 ft 472 kts 104°
2026-04-20 18:16 31.17554 -101.32037 35242 ft 473 kts 103°
2026-04-20 18:16 31.17021 -101.24397 35251 ft 474 kts 98°
2026-04-20 18:17 31.16456 -101.16741 35251 ft 474 kts 98°
2026-04-20 18:17 31.15869 -101.09120 35257 ft 474 kts 98°
2026-04-20 18:18 31.15275 -101.01479 35255 ft 474 kts 98°
2026-04-20 18:18 31.14674 -100.93823 35318 ft 475 kts 98°
2026-04-20 18:19 31.14069 -100.86156 35234 ft 478 kts 98°
2026-04-20 18:19 31.13459 -100.78497 35253 ft 475 kts 98°
2026-04-20 18:20 31.13150 -100.74639 35494 ft 475 kts 98°
2026-04-20 18:20 31.12840 -100.70777 35291 ft 482 kts 98°
2026-04-20 18:20 31.12212 -100.63014 35269 ft 482 kts 98°
2026-04-20 18:21 31.11582 -100.55279 35273 ft 482 kts 98°
2026-04-20 18:21 31.10946 -100.47527 35268 ft 482 kts 98°
2026-04-20 18:22 31.10305 -100.39768 35278 ft 482 kts 98°
2026-04-20 18:22 31.09659 -100.32004 35267 ft 482 kts 98°
2026-04-20 18:23 31.09006 -100.24229 35259 ft 482 kts 98°
2026-04-20 18:23 31.08353 -100.16495 35262 ft 481 kts 98°
2026-04-20 18:24 31.07694 -100.08757 35258 ft 481 kts 98°
2026-04-20 18:24 31.07032 -100.01032 35253 ft 481 kts 98°
2026-04-20 18:25 31.06364 -99.93282 35255 ft 481 kts 98°
2026-04-20 18:25 31.05691 -99.85545 35259 ft 481 kts 98°
2026-04-20 18:26 31.05013 -99.77795 35257 ft 482 kts 98°
2026-04-20 18:26 31.04328 -99.70026 35255 ft 482 kts 98°
2026-04-20 18:27 31.03641 -99.62287 35256 ft 482 kts 98°
2026-04-20 18:27 31.02949 -99.54537 35262 ft 482 kts 98°
2026-04-20 18:28 31.02248 -99.46754 35269 ft 482 kts 98°
2026-04-20 18:28 31.01546 -99.39002 35272 ft 483 kts 98°
2026-04-20 18:29 31.00834 -99.31200 35269 ft 483 kts 98°
2026-04-20 18:29 31.00116 -99.23370 35266 ft 482 kts 98°
2026-04-20 18:30 30.99394 -99.15562 35265 ft 482 kts 98°
2026-04-20 18:30 30.98668 -99.07758 35259 ft 482 kts 98°
2026-04-20 18:31 30.97938 -98.99966 35259 ft 482 kts 98°
2026-04-20 18:31 30.97209 -98.92235 35258 ft 482 kts 98°
2026-04-20 18:32 30.96467 -98.84413 35263 ft 482 kts 98°
2026-04-20 18:32 30.95447 -98.76718 35273 ft 480 kts 102°
2026-04-20 18:33 30.94342 -98.68993 35283 ft 480 kts 101°
2026-04-20 18:33 30.93271 -98.61323 35279 ft 481 kts 101°
2026-04-20 18:34 30.92198 -98.53657 35277 ft 482 kts 101°
2026-04-20 18:34 30.91113 -98.45937 35280 ft 482 kts 101°
2026-04-20 18:35 30.90027 -98.38254 35279 ft 482 kts 101°
2026-04-20 18:35 30.88922 -98.30460 35285 ft 482 kts 102°
2026-04-20 18:36 30.87817 -98.22708 35296 ft 482 kts 102°
2026-04-20 18:36 30.86713 -98.15000 35292 ft 482 kts 102°
2026-04-20 18:37 30.85613 -98.07345 35291 ft 482 kts 102°
2026-04-20 18:37 30.84498 -97.99622 35287 ft 482 kts 102°
2026-04-20 18:38 30.83382 -97.91946 35293 ft 482 kts 102°
2026-04-20 18:38 30.82240 -97.84152 35299 ft 482 kts 102°
2026-04-20 18:39 30.81111 -97.76485 35294 ft 482 kts 102°
2026-04-20 18:39 30.79966 -97.68747 35294 ft 483 kts 102°
2026-04-20 18:40 30.78827 -97.61077 35293 ft 483 kts 102°
2026-04-20 18:40 30.77676 -97.53362 35294 ft 484 kts 102°
2026-04-20 18:41 30.76531 -97.45707 35269 ft 475 kts 102°
2026-04-20 18:41 30.75958 -97.41897 35010 ft 471 kts 102°
2026-04-20 18:41 30.75397 -97.38168 34550 ft 472 kts 102°
2026-04-20 18:42 30.74826 -97.34384 34034 ft 474 kts 102°
2026-04-20 18:42 30.74258 -97.30627 33542 ft 473 kts 102°
2026-04-20 18:42 30.73679 -97.26804 32953 ft 473 kts 102°
2026-04-20 18:42 30.73102 -97.23001 32300 ft 474 kts 102°
2026-04-20 18:43 30.72534 -97.19271 31598 ft 476 kts 101°
2026-04-20 18:43 30.71960 -97.15503 30934 ft 476 kts 101°
2026-04-20 18:43 30.71382 -97.11713 30260 ft 476 kts 101°
2026-04-20 18:43 30.70804 -97.07937 29482 ft 479 kts 101°
2026-04-20 18:44 30.70230 -97.04195 28923 ft 474 kts 101°
2026-04-20 18:44 30.69654 -97.00442 28409 ft 470 kts 101°
2026-04-20 18:44 30.69081 -96.96717 27883 ft 466 kts 101°
2026-04-20 18:44 30.68514 -96.93045 27348 ft 462 kts 101°
2026-04-20 18:45 30.67956 -96.89431 26853 ft 458 kts 101°
2026-04-20 18:45 30.67393 -96.85797 26459 ft 455 kts 101°
2026-04-20 18:45 30.66837 -96.82211 26143 ft 451 kts 101°
2026-04-20 18:45 30.66279 -96.78621 25772 ft 449 kts 100°
2026-04-20 18:46 30.65731 -96.75107 25421 ft 445 kts 100°
2026-04-20 18:46 30.65183 -96.71590 24945 ft 442 kts 100°
2026-04-20 18:46 30.64635 -96.68105 24419 ft 439 kts 100°
2026-04-20 18:46 30.64087 -96.64622 23891 ft 437 kts 100°
2026-04-20 18:47 30.63549 -96.61214 23462 ft 432 kts 100°
2026-04-20 18:47 30.63011 -96.57809 22973 ft 430 kts 100°
2026-04-20 18:47 30.62472 -96.54408 22478 ft 427 kts 100°
2026-04-20 18:47 30.61940 -96.51051 21953 ft 421 kts 100°
2026-04-20 18:48 30.61411 -96.47720 21339 ft 418 kts 100°
2026-04-20 18:48 30.60889 -96.44456 20755 ft 415 kts 101°
2026-04-20 18:48 30.59947 -96.41328 20146 ft 408 kts 121°
2026-04-20 18:48 30.58347 -96.38654 19552 ft 401 kts 128°
2026-04-20 18:49 30.56722 -96.36080 18913 ft 398 kts 128°
2026-04-20 18:49 30.55090 -96.33497 18252 ft 395 kts 129°
2026-04-20 18:49 30.53481 -96.30951 17694 ft 389 kts 129°
2026-04-20 18:49 30.51898 -96.28450 17107 ft 383 kts 129°
2026-04-20 18:50 30.50333 -96.25978 16448 ft 379 kts 129°
2026-04-20 18:50 30.48784 -96.23533 15761 ft 376 kts 128°
2026-04-20 18:50 30.47254 -96.21118 15111 ft 371 kts 128°
2026-04-20 18:50 30.45736 -96.18725 14481 ft 367 kts 128°
2026-04-20 18:51 30.44250 -96.16383 13862 ft 362 kts 128°
2026-04-20 18:51 30.42775 -96.14059 13257 ft 357 kts 128°
2026-04-20 18:51 30.41318 -96.11766 12706 ft 350 kts 128°
2026-04-20 18:51 30.39912 -96.09553 12618 ft 329 kts 128°
2026-04-20 18:52 30.38601 -96.07491 12515 ft 312 kts 128°
2026-04-20 18:52 30.37330 -96.05495 12082 ft 308 kts 128°
2026-04-20 18:52 30.35883 -96.03725 11639 ft 300 kts 149°
2026-04-20 18:52 30.34003 -96.02787 11217 ft 292 kts 165°
2026-04-20 18:53 30.32099 -96.02080 10806 ft 288 kts 164°
2026-04-20 18:53 30.30186 -96.01369 10386 ft 284 kts 163°
2026-04-20 18:53 30.28315 -96.00678 10016 ft 279 kts 163°
2026-04-20 18:53 30.26490 -96.00005 9593 ft 277 kts 163°
2026-04-20 18:54 30.24642 -95.99326 9117 ft 276 kts 163°
2026-04-20 18:54 30.22815 -95.98653 8629 ft 277 kts 162°
2026-04-20 18:54 30.20975 -95.97977 8184 ft 275 kts 162°
2026-04-20 18:54 30.19195 -95.97322 7962 ft 266 kts 162°
2026-04-20 18:55 30.17473 -95.96690 7951 ft 249 kts 162°
2026-04-20 18:55 30.15863 -95.96098 7935 ft 234 kts 162°
2026-04-20 18:55 30.14344 -95.95541 7957 ft 225 kts 161°
2026-04-20 18:55 30.12855 -95.94991 7955 ft 224 kts 161°
2026-04-20 18:56 30.11390 -95.94449 7893 ft 222 kts 162°
2026-04-20 18:56 30.09895 -95.93896 7734 ft 224 kts 161°
2026-04-20 18:56 30.08397 -95.93343 7571 ft 225 kts 161°
2026-04-20 18:56 30.06913 -95.92795 7458 ft 223 kts 161°
2026-04-20 18:57 30.05424 -95.92245 7280 ft 225 kts 161°
2026-04-20 18:57 30.03942 -95.91698 7149 ft 225 kts 161°
2026-04-20 18:57 30.02500 -95.91037 7000 ft 222 kts 142°
2026-04-20 18:57 30.01488 -95.89722 6974 ft 219 kts 124°
2026-04-20 18:58 30.00590 -95.88292 6955 ft 220 kts 124°
2026-04-20 18:58 29.99931 -95.86704 6958 ft 217 kts 111°
2026-04-20 18:58 29.99370 -95.85086 6956 ft 217 kts 111°
2026-04-20 18:58 29.99040 -95.83417 6969 ft 215 kts 89°
2026-04-20 18:59 29.99113 -95.81693 6965 ft 216 kts 88°
2026-04-20 18:59 29.99168 -95.79990 6969 ft 209 kts 88°
2026-04-20 18:59 29.99206 -95.78330 6958 ft 205 kts 89°
2026-04-20 18:59 29.99232 -95.76711 6955 ft 202 kts 89°
2026-04-20 19:00 29.99252 -95.75079 6760 ft 202 kts 89°
2026-04-20 19:00 29.99266 -95.73473 6542 ft 203 kts 89°
2026-04-20 19:00 29.99277 -95.71851 6292 ft 204 kts 89°
2026-04-20 19:00 29.99285 -95.70203 6029 ft 206 kts 89°
2026-04-20 19:01 29.99293 -95.68533 5748 ft 209 kts 89°
2026-04-20 19:01 29.99299 -95.66898 5510 ft 205 kts 89°
2026-04-20 19:01 29.99303 -95.65258 5208 ft 202 kts 89°
2026-04-20 19:01 29.99308 -95.63652 4920 ft 199 kts 89°
2026-04-20 19:02 29.99312 -95.62081 4639 ft 196 kts 90°
2026-04-20 19:02 29.99315 -95.60517 4362 ft 193 kts 90°
2026-04-20 19:02 29.99318 -95.58984 4094 ft 191 kts 90°
2026-04-20 19:02 29.99322 -95.57471 3829 ft 188 kts 90°
2026-04-20 19:03 29.99325 -95.55973 3569 ft 185 kts 90°
2026-04-20 19:03 29.99328 -95.54511 3317 ft 183 kts 90°
2026-04-20 19:03 29.99330 -95.53056 3068 ft 181 kts 90°
2026-04-20 19:03 29.99332 -95.51616 2820 ft 179 kts 90°
2026-04-20 19:04 29.99334 -95.50192 2578 ft 177 kts 90°
2026-04-20 19:04 29.99336 -95.48817 2339 ft 164 kts 90°
2026-04-20 19:04 29.99337 -95.47557 2133 ft 150 kts 90°
2026-04-20 19:04 29.99338 -95.46372 1929 ft 146 kts 90°
2026-04-20 19:05 29.99339 -95.45233 1753 ft 140 kts 90°
2026-04-20 19:05 29.99340 -95.44128 1560 ft 135 kts 90°
2026-04-20 19:05 29.99341 -95.43060 1380 ft 131 kts 90°
2026-04-20 19:05 29.99342 -95.42020 1208 ft 128 kts 90°
2026-04-20 19:06 29.99342 -95.41010 1042 ft 125 kts 91°
2026-04-20 19:06 29.99343 -95.40011 878 ft 123 kts 90°
2026-04-20 19:06 29.99343 -95.39038 718 ft 122 kts 91°
2026-04-20 19:06 29.99345 -95.38053 559 ft 122 kts 90°
2026-04-20 19:07 29.99347 -95.37083 393 ft 122 kts 91°
2026-04-20 19:07 29.99346 -95.36099 237 ft 123 kts 90°
2026-04-20 19:07 29.99343 -95.35101 102 ft 121 kts 90°
2026-04-20 19:07 29.99343 -95.34235 98 ft 89 kts 90°
2026-04-20 19:08 29.99343 -95.33709 98 ft 50 kts 90°
2026-04-20 19:08 29.99286 -95.33243 97 ft 17 kts 118°
2026-04-20 19:08 29.99250 -95.33168 96 ft 8 kts 120°
2026-04-20 19:09 29.99213 -95.33096 96 ft 12 kts 121°
2026-04-20 19:09 29.99162 -95.33031 95 ft 10 kts 169°
2026-04-20 19:09 29.99077 -95.33028 95 ft 13 kts 179°
2026-04-20 19:09 29.98970 -95.33027 95 ft 17 kts 179°
2026-04-20 19:10 29.98848 -95.33026 95 ft 14 kts 179°
2026-04-20 19:10 29.98733 -95.33026 95 ft 18 kts 180°
2026-04-20 19:10 29.98596 -95.33026 95 ft 19 kts 180°
2026-04-20 19:10 29.98458 -95.33026 95 ft 19 kts 180°
2026-04-20 19:11 29.98351 -95.33026 95 ft 9 kts 180°
2026-04-20 19:11 29.98304 -95.33082 95 ft 12 kts 266°
2026-04-20 19:11 29.98303 -95.33197 95 ft 16 kts 270°
2026-04-20 19:11 29.98301 -95.33340 95 ft 19 kts 268°
2026-04-20 19:12 29.98301 -95.33501 97 ft 19 kts 271°
2026-04-20 19:12 29.98312 -95.33667 98 ft 21 kts 275°
2026-04-20 19:12 29.98317 -95.33832 98 ft 18 kts 270°
2026-04-20 19:12 29.98320 -95.33967 98 ft 13 kts 277°
2026-04-20 19:13 29.98356 -95.34059 98 ft 12 kts 306°
2026-04-20 19:13 29.98377 -95.34166 98 ft 14 kts 270°
2026-04-20 19:13 29.98377 -95.34288 98 ft 15 kts 270°
2026-04-20 19:13 29.98397 -95.34341 98 ft 7 kts 350°
2026-04-20 19:14 29.98462 -95.34342 98 ft 10 kts
2026-04-20 19:14 29.98528 -95.34341 98 ft 7 kts
2026-04-20 19:14 29.98559 -95.34354 98 ft 2 kts 309°
2026-04-20 19:14 29.98568 -95.34371 98 ft 2 kts 293°
2026-04-20 19:15 29.98571 -95.34383 98 ft 0 kts 291°
2026-04-20 19:15 29.98572 -95.34384 98 ft 0 kts 291°